User: anonymous   Login
Location: Unspecified
(0.0000°N, 0.0000°E)
Time: 18:46:00
(UTC+00:00)
Language:

Eole - Orbit

View from above orbital plane
View from above orbital plane
View from above satellite
View from above satellite

Ground track
Ground track

The orbit data is extracted from the following two-line orbital elements,

1  5435U 71071A   17145.88850997 -.00000084 +00000-0 +25540-4 0  9998
2  5435 050.1416 312.5202 0110561 027.0305 333.6324 14.54998156393698
Epoch (UTC): 25 May 2017 21:19:27
Eccentricity: 0.0110561
inclination: 50.1416°
perigee height: 631 km
apogee height: 788 km
right ascension of ascending node: 312.5202°
argument of perigee: 27.0305°
revolutions per day: 14.54998156
mean anomaly at epoch: 333.6324°
orbit number at epoch: 39369

The dashed part of the orbit path shows where the satellite is in the earth's shadow,  

DLR